Flag for Senegal Weather past 2 weeks in Thiès, Senegal

Now
70 °F

Clear.


Feels Like: 70 °F
Forecast: N/A
Wind: 10 mph from North

Location: Dakar / Yoff


UV Index: N/A

Visibility: 10 mi


Pressure: 29.83 "Hg

Humidity: 83%

Dew point: 64 °F

Location of ThièsLocation

Historic Weather in Thiès

°F

Thiès temperature yesterday

Maximum temperature yesterday: 75 °F (at 1:30 PM)
Minimum temperature yesterday: 68 °F (at 2:30 AM)
Average temperature yesterday: 71 °F

Past Weeks' High & Low Weather Summary

 TemperatureHumidityPressure
High88 °F (Apr 18, 4:00 PM)100% (Apr 11, 8:00 AM)29.98 "Hg (Apr 11, 8:00 AM)
Low63 °F (Apr 10, 1:00 AM)38% (Apr 19, 6:00 PM)29.71 "Hg (Apr 17, 4:00 PM)
Average71 °F78%29.85 "Hg
* Reported Apr 8 7:00 PM — Apr 23 7:30 PM, Thiès, Weather by CustomWeather, © 2014

Note: Actual official high and low records may vary slightly from our data, if they occured in-between our weather recording intervals... More about our weather records

Advertising

Historic Weather Conditions — Data for Previous 24 hours

 ConditionsComfort  
Time TempWeatherWind HumidityBarometerVisibility
7:30 PM
Apr 23
70 °FClear.12 mph83%29.80 "Hg10 mi
7:00 PM72 °FSunny.15 mph78%29.80 "Hg10 mi
6:30 PM72 °FSunny.16 mph78%29.80 "Hg10 mi
6:00 PM73 °FSunny.15 mph74%29.80 "Hg10 mi
5:30 PM73 °FSunny.16 mph74%29.80 "Hg10 mi
5:00 PM75 °FSunny.16 mph69%29.80 "Hg10 mi
4:30 PM75 °FSunny.16 mph69%29.80 "Hg10 mi
4:00 PM75 °FSunny.18 mph69%29.80 "Hg10 mi
3:30 PM75 °FSunny.18 mph69%29.83 "Hg10 mi
3:00 PM75 °FSunny.20 mph69%29.83 "Hg10 mi
2:30 PM75 °FSunny.18 mph69%29.83 "Hg10 mi
2:00 PM75 °FSunny.17 mph69%29.86 "Hg10 mi
1:30 PM75 °FSunny.18 mph69%29.86 "Hg10 mi
1:00 PM77 °FSunny.17 mph65%29.89 "Hg10 mi
12:30 PM75 °FSunny.16 mph69%29.89 "Hg10 mi
12:00 PM75 °FSunny.15 mph69%29.89 "Hg10 mi
11:30 AM75 °FSunny.15 mph69%29.89 "Hg10 mi
11:00 AM75 °FSunny.14 mph69%29.89 "Hg10 mi
10:30 AM73 °FSunny.13 mph74%29.92 "Hg10 mi
10:00 AM73 °FSunny.13 mph74%29.92 "Hg10 mi
9:30 AM73 °FPassing clouds.12 mph69%29.89 "HgN/A
9:00 AM72 °FSunny.12 mph73%29.89 "Hg10 mi
8:30 AM70 °FSunny.8 mph78%29.89 "Hg10 mi
8:00 AM68 °FSunny.2 mph88%29.86 "Hg10 mi
7:30 AM66 °FSunny.2 mph88%29.86 "Hg10 mi
7:00 AM66 °FSunny.3 mph88%29.86 "Hg10 mi
6:30 AM66 °FClear.6 mph88%29.86 "Hg10 mi
6:00 AM68 °FClear.8 mph83%29.83 "Hg10 mi
5:30 AM68 °FClear.14 mph83%29.83 "Hg10 mi
5:00 AM68 °FClear.16 mph88%29.83 "Hg10 mi
4:30 AM68 °FClear.16 mph88%29.83 "Hg10 mi
4:00 AM68 °FClear.17 mph88%29.83 "Hg10 mi
3:30 AM68 °FClear.17 mph88%29.83 "Hg10 mi
3:00 AM68 °FClear.17 mph88%29.83 "Hg10 mi
2:30 AM68 °FClear.17 mph88%29.86 "Hg10 mi
2:00 AM68 °FClear.16 mph88%29.86 "Hg10 mi
1:30 AM68 °FClear.16 mph88%29.86 "Hg10 mi
1:00 AM68 °FClear.16 mph88%29.86 "Hg10 mi
12:30 AM68 °FClear.16 mph88%29.86 "Hg10 mi
12:00 AM68 °FClear.17 mph88%29.86 "Hg10 mi
11:30 PM
Apr 22
68 °FClear.16 mph88%29.86 "Hg10 mi
11:00 PM68 °FClear.16 mph88%29.86 "Hg10 mi
10:30 PM68 °FClear.17 mph88%29.86 "Hg10 mi
10:00 PM68 °FClear.16 mph88%29.86 "Hg10 mi
9:30 PM68 °FClear.15 mph88%29.86 "Hg10 mi
9:00 PM68 °FClear.16 mph88%29.83 "Hg10 mi
8:30 PM70 °FClear.15 mph83%29.83 "Hg10 mi
8:00 PM70 °FClear.16 mph83%29.83 "Hg10 mi
Weather by CustomWeather, © 2014

See weather overview